Location: Góry Miechowskie
(50.3599°N, 20.1803°E)
Time: 03:23:49
(UTC+00:00)

SR - Pass Details

Date: 17 September 2024
Orbit: 578 x 855 km, 66.7° (Epoch: 04 October)

Event Time Altitude Azimuth Distance (km) Brightness Sun altitude
Rises 18:31:45 0° 326° (NW) 2,890 ? -16.8°
Reaches altitude 10° 18:34:07 10° 335° (NNW) 2,016 ? -17.2°
Maximum altitude 18:38:19 35° 42° (NE) 1,063 ? -17.8°
Enters shadow 18:39:49 28° 79° (E) 1,246 ? -18.0°
